Redmond, OR

11:34 AM PDT on April 22, 2018 (GMT -0700)
Roberts Field Airport

Weather History for KRDM - March, 2013

Change the Weather History Date:

Saturday, March 9, 2013

  Actual Average Record
Temperature  
Mean Temperature 35 °F 39 °F  
Max Temperature 56 °F 52 °F 70 °F (2005)
Min Temperature 13 °F 25 °F 13 °F (2009)
Degree Days  
Heating Degree Days 30 26  
Month to date heating degree days 253 243  
Since 1 July heating degree days 4720 4916  
Cooling Degree Days 0 0  
Month to date cooling degree days 0 0  
Year to date cooling degree days 0 0  
Moisture  
Dew Point 16 °F    
Average Humidity 54    
Maximum Humidity 92    
Minimum Humidity 16    
Precipitation  
Precipitation 0.00 in 0.02 in 0.30 in (2000)
Month to date precipitation 0.06 0.17  
Year to date precipitation 0.48 1.79  
Sea Level Pressure  
Sea Level Pressure 30.39 in    
Wind  
Wind Speed 4 mph (SE)    
Max Wind Speed 13 mph    
Max Gust Speed 18 mph    
Visibility 10 miles    
Events      
T = Trace of Precipitation, MM = Missing Value Source: NWS Daily Summary

Daily Weather History Graph

Daily Weather History Graph

Search for Another Location

Airport or City:

Astronomy

Mar. 09, 2013 Rise Set
Actual Time 6:27 AM PST 6:03 PM PST
Civil Twilight 5:58 AM PST 6:32 PM PST
Nautical Twilight 5:24 AM PST 7:06 PM PST
Astronomical Twilight 4:50 AM PST 7:40 PM PST
Moon 4:58 AM PST (3/9) 4:08 PM PST (3/9)
Length of Visible Light 12h 34m
Length of Day
11h 36m
Waning Crescent, 5% of the Moon is Illuminated
Mar 9
Waning Crescent
Mar 11
New
Mar 19
First Quarter
Mar 27
Full
Apr 2
Last Quarter

Hourly Weather History & Observations

Time (PST) Temp. Windchill Dew Point Humidity Pressure Visibility Wind Dir Wind Speed Gust Speed Precip Events Conditions
12:56 AM 21.0 °F 16.2 °F 18.0 °F 88% 30.22 in 10.0 mi SSE 3.5 mph - N/A   Clear
1:56 AM 21.0 °F 14.6 °F 18.0 °F 88% 30.23 in 10.0 mi SSE 4.6 mph - N/A   Clear
2:56 AM 19.9 °F 13.4 °F 17.1 °F 89% 30.24 in 10.0 mi SSE 4.6 mph - N/A   Clear
4:56 AM 12.9 °F 6.9 °F 10.9 °F 92% 30.32 in 10.0 mi SE 3.5 mph - N/A   Clear
5:56 AM 15.1 °F - 10.9 °F 84% 30.34 in 10.0 mi Calm Calm - N/A   Clear
6:56 AM 19.0 °F 12.3 °F 14.0 °F 81% 30.37 in 10.0 mi SSE 4.6 mph - N/A   Clear
7:56 AM 28.0 °F 22.8 °F 21.9 °F 78% 30.38 in 10.0 mi SE 4.6 mph - N/A   Clear
8:56 AM 35.1 °F 30.1 °F 24.1 °F 64% 30.38 in 10.0 mi SE 5.8 mph - N/A   Clear
9:56 AM 42.1 °F - 25.0 °F 51% 30.39 in 10.0 mi Calm Calm - N/A   Clear
10:56 AM 46.9 °F - 18.0 °F 32% 30.39 in 10.0 mi West 5.8 mph - N/A   Clear
11:56 AM 50.0 °F - 12.0 °F 22% 30.40 in 10.0 mi NW 4.6 mph - N/A   Clear
12:56 PM 52.0 °F - 10.9 °F 19% 30.39 in 10.0 mi NNW 5.8 mph - N/A   Clear
1:56 PM 54.0 °F - 10.9 °F 18% 30.39 in 10.0 mi NNE 6.9 mph - N/A   Clear
2:56 PM 55.9 °F - 10.9 °F 17% 30.40 in 10.0 mi North 10.4 mph - N/A   Clear
3:56 PM 54.0 °F - 12.0 °F 19% 30.41 in 10.0 mi NW 5.8 mph - N/A   Clear
4:56 PM 54.0 °F - 15.1 °F 22% 30.41 in 10.0 mi North 3.5 mph - N/A   Clear
5:56 PM 48.9 °F - 19.0 °F 31% 30.43 in 10.0 mi ENE 3.5 mph - N/A   Clear
6:56 PM 39.9 °F - 19.0 °F 43% 30.46 in 10.0 mi Calm Calm - N/A   Clear
7:56 PM 30.9 °F - 18.0 °F 59% 30.46 in 10.0 mi Calm Calm - N/A   Clear
8:56 PM 28.9 °F - 18.0 °F 64% 30.47 in 10.0 mi Calm Calm - N/A   Clear
9:56 PM 28.0 °F 22.8 °F 19.0 °F 69% 30.48 in 10.0 mi SSE 4.6 mph - N/A   Clear
10:56 PM 27.0 °F 20.5 °F 18.0 °F 69% 30.48 in 10.0 mi South 5.8 mph - N/A   Clear
11:56 PM 27.0 °F 23.0 °F 18.0 °F 69% 30.47 in 10.0 mi SSE 3.5 mph - N/A   Clear